contact:dominique.lefevre@mio.osupytheas.fr, maurice.libes@osupytheas.fr, didier.mallarino@osupytheas.fr
Project:EMSO http://www.emso-fr.org/EMSO-France
Depth: 2436.0 m
Title:EMSO Ligure Ouest : Data MII capteur MICROCAT
DateTime_Computer,Latitude,Longitude,Temperature,Conductivity,Pressure,DateTime_Instrument
DateTime_Computer,Latitude,Longitude,degC,S m-1,dbar,DateTime_Instrument
2023-03-06T00:01:12Z,42.805,6.029,13.3042,4.60147,2470.553,2023-3-06T02:03:47Z
2023-03-06T00:04:15Z,42.805,6.029,13.3045,4.60154,2470.553,2023-3-06T02:06:50Z
2023-03-06T00:07:18Z,42.805,6.029,13.3060,4.60152,2470.591,2023-3-06T02:09:53Z
2023-03-06T00:10:21Z,42.805,6.029,13.3038,4.60165,2470.567,2023-3-06T02:12:56Z
2023-03-06T00:13:25Z,42.805,6.029,13.3039,4.60200,2470.6,2023-3-06T02:15:59Z
2023-03-06T00:16:28Z,42.805,6.029,13.3054,4.60163,2470.6,2023-3-06T02:19:02Z
2023-03-06T00:19:31Z,42.805,6.029,13.3058,4.60158,2470.591,2023-3-06T02:22:05Z
2023-03-06T00:22:34Z,42.805,6.029,13.3054,4.60163,2470.553,2023-3-06T02:25:08Z
2023-03-06T00:25:37Z,42.805,6.029,13.3051,4.60161,2470.553,2023-3-06T02:28:11Z
2023-03-06T00:28:40Z,42.805,6.029,13.3041,4.60181,2470.591,2023-3-06T02:31:14Z
2023-03-06T00:31:43Z,42.805,6.029,13.3042,4.60170,2470.544,2023-3-06T02:34:17Z
2023-03-06T00:34:46Z,42.805,6.029,13.3056,4.60116,2470.567,2023-3-06T02:37:20Z
2023-03-06T00:37:49Z,42.805,6.029,13.3041,4.60171,2470.553,2023-3-06T02:40:23Z
2023-03-06T00:40:52Z,42.805,6.029,13.3058,4.60130,2470.553,2023-3-06T02:43:27Z
2023-03-06T00:43:55Z,42.805,6.029,13.3042,4.60137,2470.544,2023-3-06T02:46:30Z
2023-03-06T00:46:58Z,42.805,6.029,13.3039,4.60162,2470.567,2023-3-06T02:49:33Z
2023-03-06T00:50:01Z,42.805,6.029,13.3051,4.60136,2470.591,2023-3-06T02:52:36Z
2023-03-06T00:53:04Z,42.805,6.029,13.3076,4.60144,2470.553,2023-3-06T02:55:39Z
2023-03-06T00:56:08Z,42.805,6.029,13.3064,4.60130,2470.577,2023-3-06T02:58:42Z
2023-03-06T00:59:11Z,42.805,6.029,13.3054,4.60167,2470.567,2023-3-06T03:01:45Z
2023-03-06T01:02:14Z,42.805,6.029,13.3067,4.60186,2470.53,2023-3-06T03:04:48Z
2023-03-06T01:05:17Z,42.805,6.029,13.3042,4.60188,2470.544,2023-3-06T03:07:51Z
2023-03-06T01:08:20Z,42.805,6.029,13.3070,4.60123,2470.567,2023-3-06T03:10:54Z
2023-03-06T01:11:23Z,42.805,6.029,13.3063,4.60187,2470.591,2023-3-06T03:13:57Z
2023-03-06T01:14:26Z,42.805,6.029,13.3056,4.60144,2470.544,2023-3-06T03:17:00Z
2023-03-06T01:17:29Z,42.805,6.029,13.3063,4.60129,2470.567,2023-3-06T03:20:03Z
2023-03-06T01:20:32Z,42.805,6.029,13.3072,4.60147,2470.567,2023-3-06T03:23:07Z
2023-03-06T01:23:35Z,42.805,6.029,13.3076,4.60135,2470.591,2023-3-06T03:26:10Z
2023-03-06T01:26:38Z,42.805,6.029,13.3091,4.60107,2470.553,2023-3-06T03:29:13Z
2023-03-06T01:29:41Z,42.805,6.029,13.3093,4.60098,2470.53,2023-3-06T03:32:16Z
2023-03-06T01:32:45Z,42.805,6.029,13.3039,4.60109,2470.577,2023-3-06T03:35:19Z
2023-03-06T01:35:48Z,42.805,6.029,13.3033,4.60087,2470.567,2023-3-06T03:38:22Z
2023-03-06T01:38:51Z,42.805,6.029,13.3039,4.60084,2470.553,2023-3-06T03:41:25Z
2023-03-06T01:41:54Z,42.805,6.029,13.3037,4.60081,2470.567,2023-3-06T03:44:28Z
2023-03-06T01:44:57Z,42.805,6.029,13.3024,4.60082,2470.553,2023-3-06T03:47:31Z
2023-03-06T01:48:00Z,42.805,6.029,13.3028,4.60081,2470.567,2023-3-06T03:50:34Z
2023-03-06T01:51:03Z,42.805,6.029,13.3026,4.60082,2470.567,2023-3-06T03:53:37Z
2023-03-06T01:54:06Z,42.805,6.029,13.3030,4.60081,2470.6,2023-3-06T03:56:40Z
2023-03-06T01:57:09Z,42.805,6.029,13.3031,4.60081,2470.544,2023-3-06T03:59:43Z
2023-03-06T02:00:12Z,42.805,6.029,13.3029,4.60081,2470.614,2023-3-06T04:02:47Z
2023-03-06T02:03:15Z,42.805,6.029,13.3029,4.60081,2470.577,2023-3-06T04:05:50Z
2023-03-06T02:06:18Z,42.805,6.029,13.3022,4.60081,2470.591,2023-3-06T04:08:53Z
2023-03-06T02:09:21Z,42.805,6.029,13.3028,4.60081,2470.591,2023-3-06T04:11:56Z
2023-03-06T02:12:24Z,42.805,6.029,13.3029,4.60081,2470.577,2023-3-06T04:14:59Z
2023-03-06T02:15:28Z,42.805,6.029,13.3026,4.60083,2470.614,2023-3-06T04:18:02Z
2023-03-06T02:18:31Z,42.805,6.029,13.3029,4.60082,2470.6,2023-3-06T04:21:05Z
2023-03-06T02:21:34Z,42.805,6.029,13.3024,4.60084,2470.577,2023-3-06T04:24:08Z
2023-03-06T02:24:37Z,42.805,6.029,13.3026,4.60081,2470.6,2023-3-06T04:27:11Z
2023-03-06T02:27:40Z,42.805,6.029,13.3029,4.60085,2470.577,2023-3-06T04:30:14Z
2023-03-06T02:30:43Z,42.805,6.029,13.3026,4.60094,2470.591,2023-3-06T04:33:17Z
2023-03-06T02:33:46Z,42.805,6.029,13.3028,4.60092,2470.577,2023-3-06T04:36:20Z
2023-03-06T02:36:49Z,42.805,6.029,13.3026,4.60084,2470.591,2023-3-06T04:39:23Z
2023-03-06T02:39:52Z,42.805,6.029,13.3024,4.60081,2470.6,2023-3-06T04:42:27Z
2023-03-06T02:42:55Z,42.805,6.029,13.3024,4.60090,2470.6,2023-3-06T04:45:30Z
2023-03-06T02:45:58Z,42.805,6.029,13.3028,4.60084,2470.591,2023-3-06T04:48:33Z
2023-03-06T02:49:01Z,42.805,6.029,13.3028,4.60082,2470.614,2023-3-06T04:51:36Z
2023-03-06T02:52:04Z,42.805,6.029,13.3026,4.60085,2470.614,2023-3-06T04:54:39Z
2023-03-06T02:55:08Z,42.805,6.029,13.3029,4.60084,2470.614,2023-3-06T04:57:42Z
2023-03-06T02:58:11Z,42.805,6.029,13.3026,4.60084,2470.6,2023-3-06T05:00:45Z
2023-03-06T03:01:14Z,42.805,6.029,13.3029,4.60085,2470.586,2023-3-06T05:03:48Z
2023-03-06T03:04:17Z,42.805,6.029,13.3032,4.60086,2470.624,2023-3-06T05:06:51Z
2023-03-06T03:07:20Z,42.805,6.029,13.3029,4.60084,2470.637,2023-3-06T05:09:54Z
2023-03-06T03:10:23Z,42.805,6.029,13.3027,4.60084,2470.6,2023-3-06T05:12:57Z
2023-03-06T03:13:26Z,42.805,6.029,13.3023,4.60082,2470.637,2023-3-06T05:16:00Z
2023-03-06T03:16:29Z,42.805,6.029,13.3026,4.60084,2470.624,2023-3-06T05:19:03Z
2023-03-06T03:19:32Z,42.805,6.029,13.3024,4.60084,2470.637,2023-3-06T05:22:07Z
2023-03-06T03:22:35Z,42.805,6.029,13.3024,4.60091,2470.646,2023-3-06T05:25:10Z
2023-03-06T03:25:38Z,42.805,6.029,13.3028,4.60081,2470.624,2023-3-06T05:28:13Z
2023-03-06T03:28:41Z,42.805,6.029,13.3026,4.60086,2470.637,2023-3-06T05:31:16Z
2023-03-06T03:31:44Z,42.805,6.029,13.3024,4.60092,2470.661,2023-3-06T05:34:19Z
2023-03-06T03:34:48Z,42.805,6.029,13.3022,4.60084,2470.646,2023-3-06T05:37:22Z
2023-03-06T03:37:51Z,42.805,6.029,13.3025,4.60081,2470.646,2023-3-06T05:40:25Z
2023-03-06T03:40:54Z,42.805,6.029,13.3023,4.60081,2470.684,2023-3-06T05:43:28Z
2023-03-06T03:43:57Z,42.805,6.029,13.3024,4.60082,2470.661,2023-3-06T05:46:31Z
2023-03-06T03:47:00Z,42.805,6.029,13.3024,4.60081,2470.656,2023-3-06T05:49:34Z
2023-03-06T03:50:03Z,42.805,6.029,13.3026,4.60082,2470.67,2023-3-06T05:52:37Z
2023-03-06T03:53:06Z,42.805,6.029,13.3024,4.60087,2470.707,2023-3-06T05:55:40Z
2023-03-06T03:56:09Z,42.805,6.029,13.3023,4.60081,2470.707,2023-3-06T05:58:43Z
2023-03-06T03:59:12Z,42.805,6.029,13.3026,4.60082,2470.707,2023-3-06T06:01:47Z
2023-03-06T04:02:15Z,42.805,6.029,13.3024,4.60084,2470.73,2023-3-06T06:04:50Z
2023-03-06T04:05:18Z,42.805,6.029,13.3022,4.60082,2470.684,2023-3-06T06:07:53Z
2023-03-06T04:08:21Z,42.805,6.029,13.3026,4.60081,2470.693,2023-3-06T06:10:56Z
2023-03-06T04:11:24Z,42.805,6.029,13.3026,4.60081,2470.67,2023-3-06T06:13:59Z
2023-03-06T04:14:27Z,42.805,6.029,13.3022,4.60080,2470.717,2023-3-06T06:17:02Z
2023-03-06T04:17:31Z,42.805,6.029,13.3022,4.60080,2470.693,2023-3-06T06:20:05Z
2023-03-06T04:20:34Z,42.805,6.029,13.3022,4.60081,2470.707,2023-3-06T06:23:08Z
2023-03-06T04:23:37Z,42.805,6.029,13.3022,4.60080,2470.717,2023-3-06T06:26:11Z
2023-03-06T04:26:40Z,42.805,6.029,13.3024,4.60081,2470.684,2023-3-06T06:29:14Z
2023-03-06T04:29:43Z,42.805,6.029,13.3027,4.60081,2470.73,2023-3-06T06:32:17Z
2023-03-06T04:32:46Z,42.805,6.029,13.3025,4.60081,2470.717,2023-3-06T06:35:20Z
2023-03-06T04:35:49Z,42.805,6.029,13.3024,4.60081,2470.74,2023-3-06T06:38:23Z
2023-03-06T04:38:52Z,42.805,6.029,13.3023,4.60084,2470.73,2023-3-06T06:41:26Z
2023-03-06T04:41:55Z,42.805,6.029,13.3024,4.60084,2470.717,2023-3-06T06:44:30Z
2023-03-06T04:44:58Z,42.805,6.029,13.3022,4.60082,2470.717,2023-3-06T06:47:33Z
2023-03-06T04:48:01Z,42.805,6.029,13.3025,4.60083,2470.73,2023-3-06T06:50:36Z
2023-03-06T04:51:04Z,42.805,6.029,13.3025,4.60081,2470.717,2023-3-06T06:53:39Z
2023-03-06T04:54:07Z,42.805,6.029,13.3023,4.60084,2470.74,2023-3-06T06:56:42Z
2023-03-06T04:57:10Z,42.805,6.029,13.3026,4.60083,2470.74,2023-3-06T06:59:45Z
2023-03-06T05:00:14Z,42.805,6.029,13.3024,4.60084,2470.74,2023-3-06T07:02:48Z
2023-03-06T05:03:17Z,42.805,6.029,13.3024,4.60084,2470.74,2023-3-06T07:05:51Z
2023-03-06T05:06:20Z,42.805,6.029,13.3021,4.60081,2470.754,2023-3-06T07:08:54Z
2023-03-06T05:09:23Z,42.805,6.029,13.3021,4.60081,2470.777,2023-3-06T07:11:57Z
2023-03-06T05:12:26Z,42.805,6.029,13.3024,4.60081,2470.787,2023-3-06T07:15:00Z
2023-03-06T05:15:29Z,42.805,6.029,13.3022,4.60082,2470.763,2023-3-06T07:18:03Z
2023-03-06T05:18:32Z,42.805,6.029,13.3024,4.60081,2470.726,2023-3-06T07:21:06Z
2023-03-06T05:21:35Z,42.805,6.029,13.3023,4.60081,2470.787,2023-3-06T07:24:09Z
2023-03-06T05:24:38Z,42.805,6.029,13.3023,4.60081,2470.777,2023-3-06T07:27:13Z
2023-03-06T05:27:41Z,42.805,6.029,13.3021,4.60084,2470.81,2023-3-06T07:30:16Z
2023-03-06T05:30:44Z,42.805,6.029,13.3025,4.60081,2470.8,2023-3-06T07:33:19Z
2023-03-06T05:33:47Z,42.805,6.029,13.3024,4.60083,2470.763,2023-3-06T07:36:22Z
2023-03-06T05:36:50Z,42.805,6.029,13.3022,4.60082,2470.763,2023-3-06T07:39:25Z
2023-03-06T05:39:54Z,42.805,6.029,13.3023,4.60084,2470.763,2023-3-06T07:42:28Z
2023-03-06T05:42:57Z,42.805,6.029,13.3027,4.60081,2470.777,2023-3-06T07:45:31Z
2023-03-06T05:46:00Z,42.805,6.029,13.3028,4.60095,2470.787,2023-3-06T07:48:34Z
2023-03-06T05:49:03Z,42.805,6.029,13.3052,4.60102,2470.81,2023-3-06T07:51:37Z
2023-03-06T05:52:06Z,42.805,6.029,13.3038,4.60102,2470.763,2023-3-06T07:54:40Z
2023-03-06T05:55:09Z,42.805,6.029,13.3036,4.60109,2470.787,2023-3-06T07:57:43Z
2023-03-06T05:58:12Z,42.805,6.029,13.3026,4.60085,2470.763,2023-3-06T08:00:46Z
2023-03-06T06:01:15Z,42.805,6.029,13.3027,4.60084,2470.847,2023-3-06T08:03:50Z
2023-03-06T06:04:18Z,42.805,6.029,13.3022,4.60084,2470.8,2023-3-06T08:06:53Z
2023-03-06T06:07:21Z,42.805,6.029,13.3022,4.60084,2470.787,2023-3-06T08:09:56Z
2023-03-06T06:10:24Z,42.805,6.029,13.3037,4.60099,2470.8,2023-3-06T08:12:59Z
2023-03-06T06:13:27Z,42.805,6.029,13.3032,4.60092,2470.787,2023-3-06T08:16:02Z
2023-03-06T06:16:30Z,42.805,6.029,13.3031,4.60087,2470.787,2023-3-06T08:19:05Z
2023-03-06T06:19:33Z,42.805,6.029,13.3034,4.60087,2470.833,2023-3-06T08:22:08Z
2023-03-06T06:22:37Z,42.805,6.029,13.3035,4.60097,2470.81,2023-3-06T08:25:11Z
2023-03-06T06:25:40Z,42.805,6.029,13.3033,4.60094,2470.81,2023-3-06T08:28:14Z
2023-03-06T06:28:43Z,42.805,6.029,13.3037,4.60114,2470.81,2023-3-06T08:31:17Z
2023-03-06T06:31:46Z,42.805,6.029,13.3048,4.60112,2470.81,2023-3-06T08:34:20Z
2023-03-06T06:34:49Z,42.805,6.029,13.3053,4.60122,2470.833,2023-3-06T08:37:23Z
2023-03-06T06:37:52Z,42.805,6.029,13.3033,4.60109,2470.833,2023-3-06T08:40:26Z
2023-03-06T06:40:55Z,42.805,6.029,13.3029,4.60086,2470.81,2023-3-06T08:43:29Z
2023-03-06T06:43:58Z,42.805,6.029,13.3035,4.60101,2470.824,2023-3-06T08:46:33Z
2023-03-06T06:47:01Z,42.805,6.029,13.3031,4.60114,2470.847,2023-3-06T08:49:36Z
2023-03-06T06:50:04Z,42.805,6.029,13.3045,4.60111,2470.833,2023-3-06T08:52:39Z
2023-03-06T06:53:07Z,42.805,6.029,13.3043,4.60109,2470.833,2023-3-06T08:55:42Z
2023-03-06T06:56:10Z,42.805,6.029,13.3049,4.60104,2470.857,2023-3-06T08:58:45Z
2023-03-06T06:59:13Z,42.805,6.029,13.3044,4.60096,2470.787,2023-3-06T09:01:48Z
2023-03-06T07:02:17Z,42.805,6.029,13.3047,4.60106,2470.833,2023-3-06T09:04:51Z
2023-03-06T07:05:20Z,42.805,6.029,13.3048,4.60124,2470.833,2023-3-06T09:07:54Z
2023-03-06T07:08:23Z,42.805,6.029,13.3044,4.60099,2470.81,2023-3-06T09:10:57Z
2023-03-06T07:11:26Z,42.805,6.029,13.3039,4.60111,2470.824,2023-3-06T09:14:00Z
2023-03-06T07:14:29Z,42.805,6.029,13.3046,4.60126,2470.81,2023-3-06T09:17:03Z
2023-03-06T07:17:32Z,42.805,6.029,13.3034,4.60126,2470.833,2023-3-06T09:20:06Z
2023-03-06T07:20:35Z,42.805,6.029,13.3036,4.60137,2470.847,2023-3-06T09:23:09Z
2023-03-06T07:23:38Z,42.805,6.029,13.3036,4.60125,2470.824,2023-3-06T09:26:13Z
2023-03-06T07:26:41Z,42.805,6.029,13.3044,4.60116,2470.833,2023-3-06T09:29:16Z
2023-03-06T07:29:44Z,42.805,6.029,13.3041,4.60139,2470.824,2023-3-06T09:32:19Z
2023-03-06T07:32:47Z,42.805,6.029,13.3039,4.60141,2470.847,2023-3-06T09:35:22Z
2023-03-06T07:35:50Z,42.805,6.029,13.3041,4.60156,2470.847,2023-3-06T09:38:25Z
2023-03-06T07:38:53Z,42.805,6.029,13.3046,4.60117,2470.81,2023-3-06T09:41:28Z
2023-03-06T07:41:57Z,42.805,6.029,13.3054,4.60140,2470.857,2023-3-06T09:44:31Z
2023-03-06T07:45:00Z,42.805,6.029,13.3042,4.60125,2470.833,2023-3-06T09:47:34Z
2023-03-06T07:48:03Z,42.805,6.029,13.3041,4.60123,2470.81,2023-3-06T09:50:37Z
2023-03-06T07:51:06Z,42.805,6.029,13.3032,4.60114,2470.81,2023-3-06T09:53:40Z
2023-03-06T07:54:09Z,42.805,6.029,13.3037,4.60122,2470.857,2023-3-06T09:56:43Z
2023-03-06T07:57:12Z,42.805,6.029,13.3036,4.60128,2470.847,2023-3-06T09:59:46Z
2023-03-06T08:00:15Z,42.805,6.029,13.3043,4.60135,2470.847,2023-3-06T10:02:49Z
2023-03-06T08:03:18Z,42.805,6.029,13.3040,4.60134,2470.824,2023-3-06T10:05:53Z
2023-03-06T08:06:21Z,42.805,6.029,13.3039,4.60130,2470.81,2023-3-06T10:08:56Z
2023-03-06T08:09:24Z,42.805,6.029,13.3038,4.60135,2470.833,2023-3-06T10:11:59Z
2023-03-06T08:12:27Z,42.805,6.029,13.3043,4.60128,2470.833,2023-3-06T10:15:02Z
2023-03-06T08:15:30Z,42.805,6.029,13.3054,4.60160,2470.824,2023-3-06T10:18:05Z
2023-03-06T08:18:33Z,42.805,6.029,13.3036,4.60117,2470.824,2023-3-06T10:21:08Z
2023-03-06T08:21:37Z,42.805,6.029,13.3036,4.60120,2470.833,2023-3-06T10:24:11Z
2023-03-06T08:24:40Z,42.805,6.029,13.3050,4.60134,2470.824,2023-3-06T10:27:14Z
2023-03-06T08:27:43Z,42.805,6.029,13.3041,4.60133,2470.833,2023-3-06T10:30:17Z
2023-03-06T08:30:46Z,42.805,6.029,13.3043,4.60120,2470.833,2023-3-06T10:33:20Z
2023-03-06T08:33:49Z,42.805,6.029,13.3034,4.60113,2470.824,2023-3-06T10:36:23Z
2023-03-06T08:36:52Z,42.805,6.029,13.3047,4.60110,2470.833,2023-3-06T10:39:26Z
2023-03-06T08:39:55Z,42.805,6.029,13.3031,4.60123,2470.847,2023-3-06T10:42:29Z
2023-03-06T08:42:58Z,42.805,6.029,13.3034,4.60122,2470.871,2023-3-06T10:45:33Z
2023-03-06T08:46:01Z,42.805,6.029,13.3041,4.60140,2470.787,2023-3-06T10:48:36Z
2023-03-06T08:49:04Z,42.805,6.029,13.3034,4.60128,2470.833,2023-3-06T10:51:39Z
2023-03-06T08:52:07Z,42.805,6.029,13.3045,4.60135,2470.81,2023-3-06T10:54:42Z
2023-03-06T08:55:10Z,42.805,6.029,13.3038,4.60125,2470.787,2023-3-06T10:57:45Z
2023-03-06T08:58:13Z,42.805,6.029,13.3046,4.60126,2470.787,2023-3-06T11:00:48Z
2023-03-06T09:01:17Z,42.805,6.029,13.3036,4.60112,2470.81,2023-3-06T11:03:51Z
2023-03-06T09:04:20Z,42.805,6.029,13.3038,4.60127,2470.81,2023-3-06T11:06:54Z
2023-03-06T09:07:23Z,42.805,6.029,13.3033,4.60137,2470.8,2023-3-06T11:09:57Z
2023-03-06T09:10:26Z,42.805,6.029,13.3035,4.60127,2470.8,2023-3-06T11:13:00Z
2023-03-06T09:13:29Z,42.805,6.029,13.3040,4.60143,2470.81,2023-3-06T11:16:03Z
2023-03-06T09:16:32Z,42.805,6.029,13.3043,4.60123,2470.81,2023-3-06T11:19:06Z
2023-03-06T09:19:35Z,42.805,6.029,13.3029,4.60132,2470.787,2023-3-06T11:22:10Z
2023-03-06T09:22:38Z,42.805,6.029,13.3034,4.60134,2470.787,2023-3-06T11:25:13Z
2023-03-06T09:25:41Z,42.805,6.029,13.3039,4.60117,2470.8,2023-3-06T11:28:16Z
2023-03-06T09:28:44Z,42.805,6.029,13.3039,4.60129,2470.824,2023-3-06T11:31:19Z
2023-03-06T09:31:47Z,42.805,6.029,13.3052,4.60123,2470.763,2023-3-06T11:34:22Z
2023-03-06T09:34:50Z,42.805,6.029,13.3048,4.60137,2470.81,2023-3-06T11:37:25Z
2023-03-06T09:37:53Z,42.805,6.029,13.3039,4.60142,2470.787,2023-3-06T11:40:28Z
2023-03-06T09:40:57Z,42.805,6.029,13.3034,4.60137,2470.81,2023-3-06T11:43:31Z
2023-03-06T09:44:00Z,42.805,6.029,13.3029,4.60108,2470.824,2023-3-06T11:46:34Z
2023-03-06T09:47:03Z,42.805,6.029,13.3042,4.60142,2470.763,2023-3-06T11:49:37Z
2023-03-06T09:50:06Z,42.805,6.029,13.3036,4.60120,2470.787,2023-3-06T11:52:40Z
2023-03-06T09:53:09Z,42.805,6.029,13.3038,4.60129,2470.787,2023-3-06T11:55:43Z
2023-03-06T09:56:12Z,42.805,6.029,13.3036,4.60114,2470.763,2023-3-06T11:58:46Z
2023-03-06T09:59:15Z,42.805,6.029,13.3029,4.60179,2470.787,2023-3-06T12:01:50Z
2023-03-06T10:02:18Z,42.805,6.029,13.3040,4.60153,2470.8,2023-3-06T12:04:53Z
2023-03-06T10:05:21Z,42.805,6.029,13.3043,4.60101,2470.787,2023-3-06T12:07:56Z
2023-03-06T10:08:24Z,42.805,6.029,13.3038,4.60123,2470.787,2023-3-06T12:10:59Z
2023-03-06T10:11:27Z,42.805,6.029,13.3041,4.60182,2470.777,2023-3-06T12:14:02Z
2023-03-06T10:14:30Z,42.805,6.029,13.3058,4.60155,2470.777,2023-3-06T12:17:05Z
2023-03-06T10:17:33Z,42.805,6.029,13.3045,4.60137,2470.763,2023-3-06T12:20:08Z
2023-03-06T10:20:37Z,42.805,6.029,13.3034,4.60147,2470.763,2023-3-06T12:23:11Z
2023-03-06T10:23:40Z,42.805,6.029,13.3039,4.60161,2470.74,2023-3-06T12:26:14Z
2023-03-06T10:26:43Z,42.805,6.029,13.3041,4.60170,2470.777,2023-3-06T12:29:17Z
2023-03-06T10:29:46Z,42.805,6.029,13.3045,4.60148,2470.763,2023-3-06T12:32:20Z
2023-03-06T10:32:49Z,42.805,6.029,13.3039,4.60155,2470.763,2023-3-06T12:35:23Z
2023-03-06T10:35:52Z,42.805,6.029,13.3036,4.60112,2470.74,2023-3-06T12:38:26Z
2023-03-06T10:38:55Z,42.805,6.029,13.3039,4.60137,2470.763,2023-3-06T12:41:30Z
2023-03-06T10:41:58Z,42.805,6.029,13.3044,4.60122,2470.754,2023-3-06T12:44:33Z
2023-03-06T10:45:01Z,42.805,6.029,13.3059,4.60110,2470.763,2023-3-06T12:47:36Z
2023-03-06T10:48:04Z,42.805,6.029,13.3043,4.60112,2470.8,2023-3-06T12:50:39Z
2023-03-06T10:51:07Z,42.805,6.029,13.3041,4.60122,2470.777,2023-3-06T12:53:42Z
2023-03-06T10:54:10Z,42.805,6.029,13.3039,4.60140,2470.74,2023-3-06T12:56:45Z
2023-03-06T10:57:13Z,42.805,6.029,13.3044,4.60156,2470.754,2023-3-06T12:59:48Z
2023-03-06T11:00:17Z,42.805,6.029,13.3051,4.60150,2470.74,2023-3-06T13:02:51Z
2023-03-06T11:03:20Z,42.805,6.029,13.3053,4.60177,2470.74,2023-3-06T13:05:54Z
2023-03-06T11:06:23Z,42.805,6.029,13.3051,4.60203,2470.754,2023-3-06T13:08:57Z
2023-03-06T11:09:26Z,42.805,6.029,13.3067,4.60183,2470.777,2023-3-06T13:12:00Z
2023-03-06T11:12:29Z,42.805,6.029,13.3057,4.60183,2470.754,2023-3-06T13:15:03Z
2023-03-06T11:15:32Z,42.805,6.029,13.3048,4.60187,2470.717,2023-3-06T13:18:07Z
2023-03-06T11:18:35Z,42.805,6.029,13.3061,4.60175,2470.717,2023-3-06T13:21:10Z
2023-03-06T11:21:38Z,42.805,6.029,13.3046,4.60160,2470.754,2023-3-06T13:24:13Z
2023-03-06T11:24:41Z,42.805,6.029,13.3051,4.60143,2470.74,2023-3-06T13:27:16Z
2023-03-06T11:27:44Z,42.805,6.029,13.3052,4.60145,2470.73,2023-3-06T13:30:19Z
2023-03-06T11:30:47Z,42.805,6.029,13.3041,4.60150,2470.754,2023-3-06T13:33:22Z
2023-03-06T11:33:50Z,42.805,6.029,13.3056,4.60195,2470.717,2023-3-06T13:36:25Z
2023-03-06T11:36:53Z,42.805,6.029,13.3063,4.60155,2470.777,2023-3-06T13:39:28Z
2023-03-06T11:39:57Z,42.805,6.029,13.3084,4.60146,2470.73,2023-3-06T13:42:31Z
2023-03-06T11:43:00Z,42.805,6.029,13.3074,4.60162,2470.717,2023-3-06T13:45:34Z
2023-03-06T11:46:03Z,42.805,6.029,13.3083,4.60134,2470.73,2023-3-06T13:48:37Z
2023-03-06T11:49:06Z,42.805,6.029,13.3091,4.60132,2470.717,2023-3-06T13:51:40Z
2023-03-06T11:52:09Z,42.805,6.029,13.3067,4.60154,2470.693,2023-3-06T13:54:43Z
2023-03-06T11:55:12Z,42.805,6.029,13.3061,4.60207,2470.73,2023-3-06T13:57:47Z
2023-03-06T11:58:15Z,42.805,6.029,13.3082,4.60118,2470.73,2023-3-06T14:00:50Z
2023-03-06T12:01:18Z,42.805,6.029,13.3056,4.60160,2470.717,2023-3-06T14:03:53Z
2023-03-06T12:04:21Z,42.805,6.029,13.3062,4.60144,2470.684,2023-3-06T14:06:56Z
2023-03-06T12:07:24Z,42.805,6.029,13.3070,4.60155,2470.707,2023-3-06T14:09:59Z
2023-03-06T12:10:27Z,42.805,6.029,13.3089,4.60177,2470.67,2023-3-06T14:13:02Z
2023-03-06T12:13:30Z,42.805,6.029,13.3083,4.60114,2470.693,2023-3-06T14:16:05Z
2023-03-06T12:16:33Z,42.805,6.029,13.3076,4.60216,2470.73,2023-3-06T14:19:08Z
2023-03-06T12:19:37Z,42.805,6.029,13.3085,4.60137,2470.67,2023-3-06T14:22:11Z
2023-03-06T12:22:40Z,42.805,6.029,13.3111,4.60148,2470.717,2023-3-06T14:25:14Z
2023-03-06T12:25:43Z,42.805,6.029,13.3070,4.60132,2470.67,2023-3-06T14:28:17Z
2023-03-06T12:28:46Z,42.805,6.029,13.3063,4.60131,2470.67,2023-3-06T14:31:20Z
2023-03-06T12:31:49Z,42.805,6.029,13.3057,4.60161,2470.67,2023-3-06T14:34:24Z
2023-03-06T12:34:52Z,42.805,6.029,13.3064,4.60152,2470.67,2023-3-06T14:37:27Z
2023-03-06T12:37:55Z,42.805,6.029,13.3053,4.60131,2470.707,2023-3-06T14:40:30Z
2023-03-06T12:40:58Z,42.805,6.029,13.3068,4.60140,2470.693,2023-3-06T14:43:33Z
2023-03-06T12:44:01Z,42.805,6.029,13.3087,4.60144,2470.67,2023-3-06T14:46:36Z
2023-03-06T12:47:04Z,42.805,6.029,13.3086,4.60109,2470.67,2023-3-06T14:49:39Z
2023-03-06T12:50:07Z,42.805,6.029,13.3075,4.60147,2470.684,2023-3-06T14:52:42Z
2023-03-06T12:53:11Z,42.805,6.029,13.3072,4.60113,2470.646,2023-3-06T14:55:45Z
2023-03-06T12:56:14Z,42.805,6.029,13.3095,4.60132,2470.67,2023-3-06T14:58:48Z
2023-03-06T12:59:17Z,42.805,6.029,13.3098,4.60142,2470.693,2023-3-06T15:01:51Z
2023-03-06T13:02:20Z,42.805,6.029,13.3082,4.60159,2470.661,2023-3-06T15:04:54Z
2023-03-06T13:05:23Z,42.805,6.029,13.3084,4.60145,2470.684,2023-3-06T15:07:57Z
2023-03-06T13:08:26Z,42.805,6.029,13.3049,4.60135,2470.67,2023-3-06T15:11:01Z
2023-03-06T13:11:29Z,42.805,6.029,13.3063,4.60135,2470.684,2023-3-06T15:14:04Z
2023-03-06T13:14:32Z,42.805,6.029,13.3025,4.60170,2470.684,2023-3-06T15:17:07Z
2023-03-06T13:17:35Z,42.805,6.029,13.3026,4.60147,2470.646,2023-3-06T15:20:10Z
2023-03-06T13:20:38Z,42.805,6.029,13.3027,4.60110,2470.661,2023-3-06T15:23:13Z
2023-03-06T13:23:41Z,42.805,6.029,13.3021,4.60110,2470.684,2023-3-06T15:26:16Z
2023-03-06T13:26:44Z,42.805,6.029,13.3026,4.60102,2470.661,2023-3-06T15:29:19Z
2023-03-06T13:29:47Z,42.805,6.029,13.3022,4.60096,2470.684,2023-3-06T15:32:22Z
2023-03-06T13:32:50Z,42.805,6.029,13.3027,4.60092,2470.67,2023-3-06T15:35:25Z
2023-03-06T13:35:54Z,42.805,6.029,13.3024,4.60091,2470.624,2023-3-06T15:38:28Z
2023-03-06T13:38:57Z,42.805,6.029,13.3024,4.60097,2470.684,2023-3-06T15:41:31Z
2023-03-06T13:42:00Z,42.805,6.029,13.3021,4.60094,2470.67,2023-3-06T15:44:34Z
2023-03-06T13:45:03Z,42.805,6.029,13.3029,4.60093,2470.646,2023-3-06T15:47:37Z
2023-03-06T13:48:06Z,42.805,6.029,13.3022,4.60092,2470.684,2023-3-06T15:50:41Z
2023-03-06T13:51:09Z,42.805,6.029,13.3024,4.60092,2470.67,2023-3-06T15:53:44Z
2023-03-06T13:54:12Z,42.805,6.029,13.3021,4.60092,2470.684,2023-3-06T15:56:47Z
2023-03-06T13:57:15Z,42.805,6.029,13.3025,4.60089,2470.656,2023-3-06T15:59:50Z
2023-03-06T14:00:18Z,42.805,6.029,13.3023,4.60086,2470.646,2023-3-06T16:02:53Z
2023-03-06T14:03:21Z,42.805,6.029,13.3026,4.60084,2470.624,2023-3-06T16:05:56Z
2023-03-06T14:06:24Z,42.805,6.029,13.3021,4.60084,2470.637,2023-3-06T16:08:59Z
2023-03-06T14:09:27Z,42.805,6.029,13.3020,4.60088,2470.684,2023-3-06T16:12:02Z
2023-03-06T14:12:31Z,42.805,6.029,13.3030,4.60086,2470.67,2023-3-06T16:15:05Z
2023-03-06T14:15:34Z,42.805,6.029,13.3028,4.60087,2470.661,2023-3-06T16:18:08Z
2023-03-06T14:18:37Z,42.805,6.029,13.3026,4.60087,2470.646,2023-3-06T16:21:11Z
2023-03-06T14:21:40Z,42.805,6.029,13.3026,4.60087,2470.624,2023-3-06T16:24:14Z
2023-03-06T14:24:43Z,42.805,6.029,13.3025,4.60087,2470.661,2023-3-06T16:27:18Z
2023-03-06T14:27:46Z,42.805,6.029,13.3021,4.60084,2470.646,2023-3-06T16:30:21Z
2023-03-06T14:30:49Z,42.805,6.029,13.3020,4.60092,2470.646,2023-3-06T16:33:24Z
2023-03-06T14:33:52Z,42.805,6.029,13.3023,4.60090,2470.661,2023-3-06T16:36:27Z
2023-03-06T14:36:55Z,42.805,6.029,13.3026,4.60088,2470.67,2023-3-06T16:39:30Z
2023-03-06T14:39:58Z,42.805,6.029,13.3022,4.60088,2470.646,2023-3-06T16:42:33Z
2023-03-06T14:43:01Z,42.805,6.029,13.3023,4.60086,2470.646,2023-3-06T16:45:36Z
2023-03-06T14:46:04Z,42.805,6.029,13.3025,4.60086,2470.646,2023-3-06T16:48:39Z
2023-03-06T14:49:08Z,42.805,6.029,13.3025,4.60087,2470.67,2023-3-06T16:51:42Z
2023-03-06T14:52:11Z,42.805,6.029,13.3025,4.60085,2470.633,2023-3-06T16:54:45Z
2023-03-06T14:55:14Z,42.805,6.029,13.3024,4.60084,2470.67,2023-3-06T16:57:48Z
2023-03-06T14:58:17Z,42.805,6.029,13.3022,4.60084,2470.67,2023-3-06T17:00:51Z
2023-03-06T15:01:20Z,42.805,6.029,13.3026,4.60087,2470.646,2023-3-06T17:03:55Z
2023-03-06T15:04:23Z,42.805,6.029,13.3025,4.60084,2470.646,2023-3-06T17:06:58Z
2023-03-06T15:07:26Z,42.805,6.029,13.3024,4.60083,2470.67,2023-3-06T17:10:01Z
2023-03-06T15:10:29Z,42.805,6.029,13.3024,4.60089,2470.646,2023-3-06T17:13:04Z
2023-03-06T15:13:32Z,42.805,6.029,13.3023,4.60084,2470.646,2023-3-06T17:16:07Z